Regional Weather Roundup
Issued by NWS Mobile, AL

Home | Current Version | Previous Version | Text Only | Print | Product List | Glossary On
Versions: 1 2 3 4 5 6 7 8 9 10 11 12 13 14 15 16 17 18 19 20 21 22 23 24 25 26 27 28 29 30 31 32 33 34 35 36 37 38 39 40 41 42 43 44 45 46 47 48 49 50
000
ASUS44 KMOB 010716
RWRMOB
REGIONAL WEATHER ROUNDUP
NATIONAL WEATHER SERVICE MOBILE AL
200 AM CDT WED JUL 01 2015

ALZ061>064-010800-
COASTAL ALABAMA


CITY           SKY/WX    TMP DP  RH WIND       PRES   REMARKS
MOBILE REG APT MOCLDY    73  68  84 W6        30.09F
BROOKLEY FIELD MOCLDY    76  69  79 W5        30.09F
GULF SHORES    PTSUNNY   78  75  90 W10G16    30.08F

$$

ALZ051>060-010800-
INTERIOR SOUTHWEST AND SOUTH CENTRAL ALABAMA


CITY           SKY/WX    TMP DP  RH WIND       PRES   REMARKS
ANDALUSIA/OPP  PTCLDY    75  68  78 W3        30.06F
EVERGREEN      CLOUDY    73  70  90 SW6       30.08S
FLORALA        MOSUNNY   70  68  93 CALM      30.09F
GREENVILLE     FAIR      72  68  87 W6        30.06F

$$

FLZ001>006-010800-
WESTERN FLORIDA PANHANDLE


CITY           SKY/WX    TMP DP  RH WIND       PRES   REMARKS
CRESTVIEW      LGT RAIN  70  69  97 CALM      30.09F
DESTIN         PTCLDY    81  77  88 SW7       30.08S
DUKE FIELD     FAIR      73  70  92 S3        30.06F
MARY ESTHER    PTCLDY    80  76  85 SW7       30.06F
MILTON         MOSUNNY   75  71  87 W3        30.08S
PENSACOLA      PTCLDY    79  75  87 SW8       30.07F
NAS PENSACOLA  PTCLDY    79  74  84 SW5       30.07F THUNDER
VALPARAISO     MOCLDY    74  71  90 NW3       30.07S

$$

...MARINE OBSERVATIONS...

STATION/POSITION TIME  SKY/WX   TEMP    WIND        PRES    VSBY
                                AIR SEA DIR/SP/G
                 (UTC)          (F)     (DEG/KT/KT) (MB)    (MI)
PASCAGOULA       0600            77     340/  3/  4 1019.5R
PETIT BOIS ISL   0600            83     270/ 17/ 21 1019.8R
E DAUPHIN ISLAND 0700            80     270/  5/  6 1018.4F
MIDDLE BAY LIGHT 0600            78     310/ 11     1018.6R
USCG MOBILE BAY  0600            78 84  270/  4/  5 1017.8F
STATE DOCKS      0600            77 86              1018.5F
MEAHER PARK      0700            79     280/  7     1018.3S
FORT MORGAN      0600            81     260/ 14/ 16 1019.1R
12 S ORANGE BCH  0650            83 83  270/ 16/ 19 1017.9F
WVE H/P(F/S)=  2/ 3

PENSACOLA BAY    0600            81 85  250/  5/  7 1018.9S
64 S DAUPHIN ISL 0650            80 85  260/ 25/ 31 1020.0F
WVE H/P(F/S)=  4/ 4

67 S FORT MORGAN 0630            77     240/ 14     1019.6F
115 SE PENSACOLA 0650            83 83  220/  8/ 10 1020.1S
WVE H/P(F/S)=  2/ 5

MID GULF/42001   0650            84 86  100/ 10/ 12 1019.8F
WVE H/P(F/S)=  2/ 5

EAST GULF/42003  0650            84 85  130/  8/ 10 1019.6F
WVE H/P(F/S)=  2/ 6


$$

...NEARBY LOCATIONS

CITY           SKY/WX    TMP DP  RH WIND       PRES   REMARKS
GULFPORT       CLOUDY    73  68  84 CALM      30.08F
BILOXI         CLOUDY    76  70  80 W5        30.07F
PASCAGOULA     MOCLDY    74  70  87 CALM      30.08F
HATTIESBURG    MOCLDY    71  66  84 CALM      30.08F
LAUREL         MOCLDY    68  64  88 CALM      30.08F
MERIDIAN       CLOUDY    69  66  90 SW6       30.06F
MERIDIAN NAS   MOCLDY    71  66  84 W5        30.04F
MONTGOMERY     CLOUDY    74  69  85 SW6       30.05S
MAXWELL AFB    CLOUDY    72  70  93 W2        30.04S
TROY           PTCLDY    69  68  96 CALM      30.07F
FORT RUCKER    CLEAR     69  67  93 CALM      30.05F
DALEVILLE      CLEAR     69  69  98 CALM      30.06F
DOTHAN         CLEAR     71  68  90 W6        30.10F

$$

...OTHER SURROUNDING LOCATIONS...

CITY           SKY/WX    TMP DP  RH WIND       PRES   REMARKS
BIRMINGHAM     PTCLDY    73  69  87 SW6       30.04F
TUSCALOOSA     MOCLDY    72  70  93 S8        30.04S
COLUMBUS GA    PTCLDY    72  66  81 W6        30.03F
PANAMA CITY    NOT AVBL
TALLAHASSEE    PTCLDY    69  67  93 CALM      30.10R
BATON ROUGE    MOCLDY    72  71  97 CALM      30.08F
NEW ORLEANS    CLOUDY    75  69  81 S7        30.08S
SLIDELL        CLOUDY    72  71  97 CALM      30.07F
JACKSON        CLEAR     72  69  90 S3        30.05S
MCCOMB         PTCLDY    68  68 100 S5        30.07F

$$

...SURROUNDING MARINE OBSERVATIONS...

STATION/POSITION TIME  SKY/WX   TEMP    WIND        PRES    VSBY
                                AIR SEA DIR/SP/G
                 (UTC)          (F)     (DEG/KT/KT) (MB)    (MI)
WAVELAND         0600            76 83  260/  3/  3 1019.7F
PASCAGOULA RGN A 0600            78     320/  5/  6 1019.2R
PASCAGOULA PORT  0600               85                N/A
GRAND ISLE       0600            79 84  150/  8/ 13 1018.3F
SOUTHWEST PASS   0700            78      30/  6/  7 1018.5F
PILOT STATION E  0600            77 83  310/  6/  9 1021.0F
SHELL BEACH      0600            76 83  190/  3/  4 1018.6F
PANAMA CITY      0600            78 84   80/  2/  3 1018.5F
APALACHICOLA     0600            80 85  270/  4/  6 1019.2R
TYNDALL TOWER C  0700            81     240/  9/  9 1019.6R
S APLCHCLA/42036 0650            84 85  240/ 10/ 12 1019.9S
WVE H/P(F/S)=  2/ 5


$$




USA.gov is the U.S. government's official web portal to all federal, state and local government web resources and services.